Regional Weather Roundup
Issued by NWS Mt. Holly, NJ

Home | Current Version | Previous Version | Text Only | Print | Product List | Glossary On
Versions: 1 2 3 4 5 6 7 8 9 10 11 12 13 14 15 16 17 18 19 20 21 22 23 24 25 26 27 28 29 30 31 32 33 34 35 36 37 38 39 40 41 42 43 44 45 46 47 48 49 50
000
ASUS41 KPHI 241011
RWRPHI

REGIONAL WEATHER ROUNDUP
NATIONAL WEATHER SERVICE MOUNT HOLLY NJ
600 AM EDT SUN MAY 24 2015

NOTE:  "FAIR" INDICATES FEW OR NO CLOUDS BELOW 12,000 FEET WITH NO
SIGNIFICANT WEATHER AND/OR OBSTRUCTIONS TO VISIBILITY.

 * = STATION DOES NOT REPORT PRECIPITATION (E.G. RAIN, SNOW, ETC.)
        OR FOG.

NJZ015>026-241100-
SOUTHERN NEW JERSEY

CITY           SKY/WX    TMP DP  RH WIND       PRES   REMARKS
POMONA         CLEAR     49  47  93 CALM      30.40R
RIO GRANDE*    CLEAR     50  43  76 CALM      30.41S
MILLVILLE      CLEAR     45  43  93 CALM      30.40R
WRIGHTSTOWN    CLEAR     47  47  99 CALM      30.36S
MOUNT HOLLY    CLEAR     46  44  93 CALM      30.39R
TRENTON        CLEAR     46  43  89 SW3       30.37R

$$
NJZ001>014-241100-
NORTHERN NEW JERSEY

CITY           SKY/WX    TMP DP  RH WIND       PRES   REMARKS
SUSSEX         CLEAR     38  35  89 CALM      30.36R
ANDOVER*         N/A     41  40  96 CALM      30.36R
MORRISTOWN     CLEAR     39  37  93 CALM      30.36S
NEWARK         PTCLDY    50  42  74 SW7       30.36S
TETERBORO      CLEAR     50  38  63 CALM      30.35R
CALDWELL       CLEAR     45  37  73 CALM      30.36R
SOMERVILLE     CLEAR     37  34  89 CALM      30.36R
ALLAIRE*       CLEAR     50  43  76 SW6       30.37S
TOMS RIVER*    CLEAR    N/A N/A N/A SW6       30.38S

$$
PAZ043-044-047-054-055-060>062-066>071-241100-
EASTERN PENNSYLVANIA

CITY           SKY/WX    TMP DP  RH WIND       PRES   REMARKS
PHILADELPHIA   PTCLDY    54  49  83 SW9       30.40R
NORTH PHILA    CLEAR     49  43  80 CALM      30.40R
BLUE BELL      CLEAR     41  41 100 CALM      30.38R
DOYLESTOWN     CLEAR     43  39  86 VRB3      30.37R
QUAKERTOWN*    CLEAR     39  36  87 CALM      30.38R
POTTSTOWN      CLEAR     41  39  93 CALM      30.39R
LANCASTER      CLEAR     44  41  89 CALM      30.37R
COATESVILLE    CLEAR     52  43  71 CALM      30.39R
READING        CLEAR     45  39  79 CALM      30.36R
ALLENTOWN      CLEAR     39  35  86 CALM      30.37R
MOUNT POCONO   CLEAR     43  33  68 W6        30.34R
HAZLETON       CLEAR     37  36  93 CALM      30.38S
WILKES BARRE   CLEAR     40  34  79 CALM      30.35R

$$
DEZALL-MDZ008-012-015-019-020-241100-
DELAWARE AND EASTERN MARYLAND

CITY           SKY/WX    TMP DP  RH WIND       PRES   REMARKS
WILMINGTON     CLEAR     46  42  86 W3        30.40R
DOVER          CLEAR     52  52  99 SW6       30.36R
GEORGETOWN     CLEAR     48  46  93 S3        30.41R
EASTON         PTCLDY    54  54 100 CALM      30.43R
PATUXENT       MOCLDY    53  51  93 CALM      30.39R
OCEAN CITY     CLEAR     50  46  86 SW6       30.41S
WALLOPS ISLAND CLEAR     57  53  86 S8        30.42R
CAMBRIDGE      CLEAR     52  48  87 CALM      30.39R
SALISBURY      CLEAR     45  42  89 CALM      30.41R

$$
PAZ001-021-NYZ056-072-MDZ011-DCZ001-241100-
OTHER NEARBY LOCATIONS

CITY           SKY/WX    TMP DP  RH WIND       PRES   REMARKS
HARRISBURG     PTCLDY    48  43  82 E3        30.36R
STATE COLLEGE  CLEAR     45  36  70 W5        30.36R
WILLIAMSPORT   CLEAR     39  36  89 NW3       30.37R
BINGHAMTON     CLEAR     48  31  51 SW8       30.32R
NEW YORK CITY  CLEAR     56  39  53 W7        30.38R
BALTIMORE      PTCLDY    47  44  90 CALM      30.39R
WASHINGTON DC  PTCLDY    58  50  75 S5        30.40R

$$


USA.gov is the U.S. government's official web portal to all federal, state and local government web resources and services.